| time (UTC) | temp C | wind direction | speed KPH | gust KPH | rain 1hr cm | rain 24hr cm | rain mn cm | humidity % | barometer mb |
| 20260504041600 | 12 | 143 | 0.0 | 0.0 | 0.00 | 0.00 | 0.00 | 47 | 1013.9 |
| 20260504041057 | 12 | 164 | 0.0 | 0.0 | 0.00 | 0.00 | 0.00 | 48 | 1013.8 |
| 20260504040553 | 12 | 166 | 0.0 | 0.0 | 0.00 | 0.00 | 0.00 | 48 | 1013.8 |
| 20260504040052 | 12 | 155 | 0.0 | 0.0 | 0.00 | 0.00 | 0.00 | 48 | 1013.8 |
| 20260504035551 | 12 | 160 | 0.0 | 0.0 | 0.00 | 0.00 | 0.00 | 48 | 1013.7 |
| 20260504035055 | 12 | 177 | 0.0 | 0.0 | 0.00 | 0.00 | 0.00 | 48 | 1013.9 |
| 20260504034556 | 12 | 171 | 0.0 | 0.0 | 0.00 | 0.00 | 0.00 | 47 | 1014.0 |
| 20260504034052 | 12 | 166 | 0.0 | 0.0 | 0.00 | 0.00 | 0.00 | 47 | 1014.2 |
| 20260504033551 | 12 | 170 | 0.0 | 8.0 | 0.00 | 0.00 | 0.00 | 47 | 1014.3 |
| 20260504033057 | 12 | 171 | 0.0 | 0.0 | 0.00 | 0.00 | 0.00 | 47 | 1014.3 |
| 20260504032551 | 12 | 165 | 0.0 | 0.0 | 0.00 | 0.00 | 0.00 | 48 | 1014.4 |
| 20260504032050 | 12 | 163 | 0.0 | 0.0 | 0.00 | 0.00 | 0.00 | 49 | 1014.4 |
| 20260504031602 | 11 | 165 | 0.0 | 0.0 | 0.00 | 0.00 | 0.00 | 49 | 1014.5 |
| 20260504031050 | 11 | 164 | 0.0 | 0.0 | 0.00 | 0.00 | 0.00 | 49 | 1014.6 |
| 20260504030549 | 11 | 163 | 0.0 | 0.0 | 0.00 | 0.00 | 0.00 | 49 | 1014.7 |
| 20260504030110 | 11 | 166 | 0.0 | 0.0 | 0.00 | 0.00 | 0.00 | 50 | 1014.6 |
| 20260504025549 | 11 | 175 | 0.0 | 0.0 | 0.00 | 0.00 | 0.00 | 50 | 1014.7 |
| 20260504025050 | 11 | 177 | 0.0 | 0.0 | 0.00 | 0.00 | 0.00 | 51 | 1014.7 |
| 20260504024552 | 11 | 194 | 0.0 | 0.0 | 0.00 | 0.00 | 0.00 | 52 | 1014.7 |
| 20260504024048 | 10 | 181 | 0.0 | 0.0 | 0.00 | 0.00 | 0.00 | 53 | 1014.7 |
| 20260504023548 | 10 | 179 | 0.0 | 0.0 | 0.00 | 0.00 | 0.00 | 53 | 1014.8 |
| 20260504023048 | 10 | 160 | 0.0 | 0.0 | 0.00 | 0.00 | 0.00 | 53 | 1014.8 |
| 20260504022549 | 10 | 161 | 0.0 | 0.0 | 0.00 | 0.00 | 0.00 | 53 | 1014.8 |
| 20260504022048 | 11 | 158 | 0.0 | 0.0 | 0.00 | 0.00 | 0.00 | 52 | 1014.8 |
| 20260504021548 | 11 | 158 | 0.0 | 0.0 | 0.00 | 0.00 | 0.00 | 52 | 1014.8 |
| 20260504021050 | 11 | 158 | 0.0 | 0.0 | 0.00 | 0.00 | 0.00 | 51 | 1014.8 |
| 20260504020546 | 11 | 158 | 0.0 | 0.0 | 0.00 | 0.00 | 0.00 | 51 | 1014.8 |
| 20260504020047 | 11 | 158 | 0.0 | 0.0 | 0.00 | 0.00 | 0.00 | 50 | 1014.8 |
| 20260504015547 | 12 | 158 | 0.0 | 0.0 | 0.00 | 0.00 | 0.00 | 49 | 1014.8 |
| 20260504015047 | 12 | 158 | 0.0 | 0.0 | 0.00 | 0.00 | 0.00 | 47 | 1014.8 |
| 20260504014547 | 12 | 158 | 0.0 | 0.0 | 0.00 | 0.00 | 0.00 | 46 | 1014.8 |
| 20260504014046 | 12 | 158 | 0.0 | 0.0 | 0.00 | 0.00 | 0.00 | 45 | 1014.9 |
| 20260504013546 | 13 | 158 | 0.0 | 0.0 | 0.00 | 0.00 | 0.00 | 45 | 1014.8 |
| 20260504013049 | 13 | 158 | 0.0 | 0.0 | 0.00 | 0.00 | 0.00 | 44 | 1014.7 |
| 20260504012647 | 13 | 158 | 0.0 | 0.0 | 0.00 | 0.00 | 0.00 | 44 | 1014.7 |
| 20260504012047 | 13 | 158 | 0.0 | 0.0 | 0.00 | 0.00 | 0.00 | 43 | 1014.7 |
| 20260504011546 | 13 | 158 | 0.0 | 0.0 | 0.00 | 0.00 | 0.00 | 41 | 1014.5 |
| 20260504011044 | 13 | 158 | 0.0 | 0.0 | 0.00 | 0.00 | 0.00 | 41 | 1014.3 |
| 20260504010544 | 13 | 158 | 0.0 | 0.0 | 0.00 | 0.00 | 0.00 | 40 | 1014.1 |
| 20260504010045 | 14 | 159 | 0.0 | 0.0 | 0.00 | 0.00 | 0.00 | 39 | 1014.1 |
| 20260504005544 | 15 | 159 | 0.0 | 0.0 | 0.00 | 0.00 | 0.00 | 38 | 1014.0 |
| 20260504005047 | 15 | 191 | 0.0 | 0.0 | 0.00 | 0.00 | 0.00 | 37 | 1014.0 |
| 20260504004544 | 15 | 194 | 0.0 | 0.0 | 0.00 | 0.00 | 0.00 | 37 | 1014.0 |
| 20260504004044 | 15 | 199 | 0.0 | 0.0 | 0.00 | 0.00 | 0.00 | 37 | 1014.0 |
| 20260504003543 | 15 | 190 | 0.0 | 0.0 | 0.00 | 0.00 | 0.00 | 36 | 1014.0 |
| 20260504003046 | 15 | 216 | 0.0 | 0.0 | 0.00 | 0.00 | 0.00 | 36 | 1014.0 |
| 20260504002543 | 15 | 219 | 0.0 | 0.0 | 0.00 | 0.00 | 0.00 | 35 | 1013.9 |
| 20260504002043 | 15 | 215 | 0.0 | 0.0 | 0.00 | 0.00 | 0.00 | 35 | 1013.9 |
| 20260504001544 | 16 | 217 | 0.0 | 0.0 | 0.00 | 0.00 | 0.00 | 34 | 1013.9 |
| 20260504001043 | 16 | 192 | 0.0 | 0.0 | 0.00 | 0.00 | 0.00 | 34 | 1013.9 |
| 20260504000541 | 16 | 232 | 0.0 | 0.0 | 0.00 | 0.00 | 0.00 | 33 | 1013.9 |
| 20260504000101 | 16 | 211 | 0.0 | 0.0 | 0.00 | 0.00 | 0.00 | 33 | 1014.0 |
| 20260503235540 | 16 | 223 | 0.0 | 0.0 | 0.00 | 0.00 | 0.00 | 32 | 1014.1 |
| 20260503235040 | 16 | 218 | 0.0 | 0.0 | 0.00 | 0.00 | 0.00 | 31 | 1014.1 |
| 20260503234540 | 16 | 204 | 0.0 | 0.0 | 0.00 | 0.00 | 0.00 | 32 | 1014.0 |
| 20260503234040 | 16 | 231 | 0.0 | 0.0 | 0.00 | 0.00 | 0.00 | 32 | 1014.1 |
| 20260503233540 | 16 | 225 | 0.0 | 0.0 | 0.00 | 0.00 | 0.00 | 31 | 1014.1 |
| 20260503233041 | 17 | 237 | 0.0 | 0.0 | 0.00 | 0.00 | 0.00 | 31 | 1014.1 |
| 20260503232538 | 17 | 221 | 0.0 | 0.0 | 0.00 | 0.00 | 0.00 | 30 | 1014.2 |
| 20260503232038 | 17 | 250 | 0.0 | 0.0 | 0.00 | 0.00 | 0.00 | 31 | 1014.1 |
| 20260503231538 | 17 | 229 | 0.0 | 0.0 | 0.00 | 0.00 | 0.00 | 30 | 1014.1 |
| 20260503231037 | 17 | 213 | 0.0 | 0.0 | 0.00 | 0.00 | 0.00 | 30 | 1014.3 |
| 20260503230536 | 17 | 238 | 0.0 | 0.0 | 0.00 | 0.00 | 0.00 | 29 | 1014.3 |
| 20260503230035 | 17 | 198 | 0.0 | 0.0 | 0.00 | 0.00 | 0.00 | 29 | 1014.4 |
| 20260503225535 | 17 | 223 | 0.0 | 0.0 | 0.00 | 0.00 | 0.00 | 30 | 1014.4 |
| 20260503225033 | 17 | 243 | 0.0 | 0.0 | 0.00 | 0.00 | 0.00 | 29 | 1014.7 |
| 20260503224533 | 17 | 217 | 0.0 | 0.0 | 0.00 | 0.00 | 0.00 | 29 | 1014.8 |
| 20260503224034 | 17 | 211 | 0.0 | 0.0 | 0.00 | 0.00 | 0.00 | 29 | 1014.9 |
| 20260503223535 | 17 | 216 | 0.0 | 0.0 | 0.00 | 0.00 | 0.00 | 30 | 1015.0 |
| 20260503223032 | 17 | 215 | 0.0 | 0.0 | 0.00 | 0.00 | 0.00 | 29 | 1015.0 |
| 20260503222530 | 17 | 233 | 0.0 | 0.0 | 0.00 | 0.00 | 0.00 | 29 | 1015.1 |
| 20260503222030 | 17 | 232 | 0.0 | 0.0 | 0.00 | 0.00 | 0.00 | 30 | 1015.3 |
| 20260503221530 | 17 | 227 | 0.0 | 0.0 | 0.00 | 0.00 | 0.00 | 29 | 1015.2 |
| 20260503221029 | 17 | 217 | 0.0 | 0.0 | 0.00 | 0.00 | 0.00 | 30 | 1015.3 |
| 20260503220531 | 17 | 214 | 0.0 | 0.0 | 0.00 | 0.00 | 0.00 | 30 | 1015.2 |
| 20260503220028 | 17 | 227 | 0.0 | 0.0 | 0.00 | 0.00 | 0.00 | 30 | 1015.4 |
| 20260503215530 | 17 | 167 | 0.0 | 0.0 | 0.00 | 0.00 | 0.00 | 30 | 1015.6 |
| 20260503215027 | 17 | 246 | 0.0 | 0.0 | 0.00 | 0.00 | 0.00 | 31 | 1015.6 |
| 20260503214528 | 17 | 230 | 0.0 | 0.0 | 0.00 | 0.00 | 0.00 | 29 | 1015.7 |
| 20260503214025 | 17 | 267 | 0.0 | 0.0 | 0.00 | 0.00 | 0.00 | 30 | 1016.0 |
| 20260503213525 | 17 | 225 | 0.0 | 0.0 | 0.00 | 0.00 | 0.00 | 29 | 1016.3 |
| 20260503213025 | 17 | 229 | 0.0 | 0.0 | 0.00 | 0.00 | 0.00 | 28 | 1016.1 |
| 20260503212525 | 17 | 250 | 0.0 | 0.0 | 0.00 | 0.00 | 0.00 | 27 | 1016.2 |
| 20260503212024 | 17 | 243 | 0.0 | 0.0 | 0.00 | 0.00 | 0.00 | 29 | 1016.2 |
| 20260503211524 | 17 | 243 | 0.0 | 0.0 | 0.00 | 0.00 | 0.00 | 28 | 1016.0 |
| 20260503211024 | 17 | 193 | 0.0 | 0.0 | 0.00 | 0.00 | 0.00 | 27 | 1016.0 |
| 20260503210521 | 17 | 248 | 0.0 | 0.0 | 0.00 | 0.00 | 0.00 | 27 | 1016.2 |
| 20260503210021 | 17 | 239 | 0.0 | 0.0 | 0.00 | 0.00 | 0.00 | 28 | 1016.3 |
| 20260503205522 | 17 | 229 | 0.0 | 0.0 | 0.00 | 0.00 | 0.00 | 28 | 1016.4 |
| 20260503205019 | 17 | 233 | 0.0 | 0.0 | 0.00 | 0.00 | 0.00 | 28 | 1016.5 |
| 20260503204521 | 17 | 244 | 0.0 | 0.0 | 0.00 | 0.00 | 0.00 | 27 | 1016.7 |
| 20260503204017 | 17 | 211 | 0.0 | 0.0 | 0.00 | 0.00 | 0.00 | 26 | 1016.7 |
| 20260503203521 | 17 | 248 | 0.0 | 0.0 | 0.00 | 0.00 | 0.00 | 29 | 1016.7 |
| 20260503203019 | 17 | 228 | 0.0 | 0.0 | 0.00 | 0.00 | 0.00 | 26 | 1016.8 |
| 20260503202516 | 17 | 225 | 0.0 | 0.0 | 0.00 | 0.00 | 0.00 | 27 | 1016.8 |
| 20260503202017 | 17 | 230 | 0.0 | 0.0 | 0.00 | 0.00 | 0.00 | 27 | 1016.9 |
| 20260503201513 | 16 | 225 | 0.0 | 0.0 | 0.00 | 0.00 | 0.00 | 25 | 1017.0 |
| 20260503201016 | 16 | 189 | 0.0 | 0.0 | 0.00 | 0.00 | 0.00 | 27 | 1017.3 |
| 20260503200511 | 16 | 201 | 0.0 | 0.0 | 0.00 | 0.00 | 0.00 | 26 | 1017.3 |
| 20260503200010 | 16 | 195 | 0.0 | 0.0 | 0.00 | 0.00 | 0.00 | 27 | 1017.4 |
| 20260503195510 | 16 | 196 | 0.0 | 0.0 | 0.00 | 0.00 | 0.00 | 24 | 1017.5 |
| 20260503195009 | 16 | 211 | 0.0 | 0.0 | 0.00 | 0.00 | 0.00 | 25 | 1017.7 |
| 20260503194510 | 16 | 233 | 0.0 | 0.0 | 0.00 | 0.00 | 0.00 | 24 | 1017.9 |
| 20260503194007 | 16 | 210 | 0.0 | 0.0 | 0.00 | 0.00 | 0.00 | 24 | 1018.0 |
| 20260503193509 | 17 | 242 | 0.0 | 0.0 | 0.00 | 0.00 | 0.00 | 25 | 1018.2 |
| 20260503193005 | 16 | 232 | 0.0 | 0.0 | 0.00 | 0.00 | 0.00 | 24 | 1018.3 |
| 20260503192504 | 16 | 234 | 0.0 | 1.6 | 0.00 | 0.00 | 0.00 | 26 | 1018.5 |
| 20260503192004 | 16 | 165 | 0.0 | 1.6 | 0.00 | 0.00 | 0.00 | 24 | 1018.4 |
| 20260503191503 | 16 | 242 | 0.0 | 0.0 | 0.00 | 0.00 | 0.00 | 23 | 1018.6 |
| 20260503191003 | 16 | 185 | 0.0 | 0.0 | 0.00 | 0.00 | 0.00 | 25 | 1018.6 |
| 20260503190501 | 16 | 188 | 0.0 | 0.0 | 0.00 | 0.00 | 0.00 | 25 | 1018.6 |
| 20260503190000 | 16 | 241 | 0.0 | 0.0 | 0.00 | 0.00 | 0.00 | 24 | 1018.7 |
| 20260503185600 | 16 | 216 | 0.0 | 0.0 | 0.00 | 0.00 | 0.00 | 26 | 1018.8 |
| 20260503185059 | 16 | 214 | 0.0 | 0.0 | 0.00 | 0.00 | 0.00 | 26 | 1018.9 |
| 20260503184619 | 16 | 197 | 0.0 | 0.0 | 0.00 | 0.00 | 0.00 | 25 | 1019.0 |
| 20260503184058 | 16 | 246 | 0.0 | 0.0 | 0.00 | 0.00 | 0.00 | 24 | 1019.0 |
| 20260503183556 | 16 | 225 | 0.0 | 0.0 | 0.00 | 0.00 | 0.00 | 27 | 1019.1 |
| 20260503183101 | 15 | 254 | 0.0 | 0.0 | 0.00 | 0.00 | 0.00 | 26 | 1019.3 |
| 20260503182555 | 15 | 253 | 0.0 | 0.0 | 0.00 | 0.00 | 0.00 | 26 | 1019.4 |
| 20260503182055 | 15 | 237 | 0.0 | 0.0 | 0.00 | 0.00 | 0.00 | 26 | 1019.3 |
| 20260503181558 | 15 | 248 | 0.0 | 0.0 | 0.00 | 0.00 | 0.00 | 26 | 1019.4 |
| 20260503181055 | 15 | 211 | 0.0 | 0.0 | 0.00 | 0.00 | 0.00 | 26 | 1019.5 |
| 20260503180553 | 15 | 240 | 0.0 | 0.0 | 0.00 | 0.00 | 0.00 | 26 | 1019.7 |
| 20260503180055 | 15 | 199 | 0.0 | 1.6 | 0.00 | 0.00 | 0.00 | 27 | 1019.7 |
| 20260503175552 | 15 | 138 | 0.0 | 0.0 | 0.00 | 0.00 | 0.00 | 28 | 1019.8 |
| 20260503175050 | 15 | 232 | 0.0 | 0.0 | 0.00 | 0.00 | 0.00 | 25 | 1019.9 |
| 20260503174551 | 15 | 250 | 0.0 | 0.0 | 0.00 | 0.00 | 0.00 | 25 | 1020.0 |
| 20260503174050 | 15 | 217 | 0.0 | 0.0 | 0.00 | 0.00 | 0.00 | 26 | 1020.1 |
| 20260503173553 | 15 | 233 | 0.0 | 1.6 | 0.00 | 0.00 | 0.00 | 25 | 1020.0 |
| 20260503173049 | 15 | 202 | 0.0 | 1.6 | 0.00 | 0.00 | 0.00 | 26 | 1020.1 |
| 20260503172548 | 15 | 254 | 0.0 | 11.3 | 0.00 | 0.00 | 0.00 | 25 | 1020.1 |
| 20260503172050 | 15 | 184 | 0.0 | 11.3 | 0.00 | 0.00 | 0.00 | 27 | 1020.2 |
| 20260503171608 | 15 | 198 | 0.0 | 0.0 | 0.00 | 0.00 | 0.00 | 28 | 1020.4 |
| 20260503171048 | 14 | 202 | 0.0 | 0.0 | 0.00 | 0.00 | 0.00 | 26 | 1020.6 |
| 20260503170547 | 15 | 213 | 0.0 | 0.0 | 0.00 | 0.00 | 0.00 | 25 | 1020.6 |
| 20260503150535 | 12 | 190 | 0.0 | 0.0 | 0.00 | 0.00 | 0.00 | 31 | 1021.8 |
| 20260503131012 | 8 | 192 | 0.0 | 0.0 | 0.00 | 0.00 | 0.00 | 54 | 1021.7 |
| 20260503130510 | 8 | 173 | 0.0 | 0.0 | 0.00 | 0.00 | 0.00 | 54 | 1021.7 |
| 20260503110552 | 1 | 181 | 0.0 | 0.0 | 0.00 | 0.00 | 0.00 | 69 | 1020.9 |
| 20260503081541 | 1 | 342 | 0.0 | 0.0 | 0.00 | 0.00 | 0.00 | 66 | 1020.6 |
| 20260503081039 | 1 | 342 | 0.0 | 0.0 | 0.00 | 0.00 | 0.00 | 66 | 1020.5 |
| 20260503080541 | 1 | 342 | 0.0 | 0.0 | 0.00 | 0.00 | 0.00 | 66 | 1020.5 |
| 20260503072536 | 1 | 342 | 0.0 | 0.0 | 0.00 | 0.00 | 0.00 | 65 | 1020.2 |
| 20260503072037 | 1 | 342 | 0.0 | 0.0 | 0.00 | 0.00 | 0.00 | 65 | 1020.3 |
| 20260503071552 | 1 | 342 | 0.0 | 0.0 | 0.00 | 0.00 | 0.00 | 64 | 1020.3 |
| 20260503071033 | 2 | 342 | 0.0 | 0.0 | 0.00 | 0.00 | 0.00 | 64 | 1020.2 |
| 20260503070532 | 2 | 342 | 0.0 | 0.0 | 0.00 | 0.00 | 0.00 | 64 | 1020.1 |
| 20260503055023 | 3 | 342 | 0.0 | 0.0 | 0.00 | 0.00 | 0.00 | 63 | 1020.5 |
| 20260503054528 | 3 | 342 | 0.0 | 0.0 | 0.00 | 0.00 | 0.00 | 63 | 1020.5 |
| 20260503054023 | 3 | 342 | 0.0 | 0.0 | 0.00 | 0.00 | 0.00 | 63 | 1020.5 |
| 20260503053522 | 3 | 342 | 0.0 | 0.0 | 0.00 | 0.00 | 0.00 | 63 | 1020.3 |
| 20260503053033 | 3 | 342 | 0.0 | 1.6 | 0.00 | 0.00 | 0.00 | 63 | 1020.3 |
| 20260503052521 | 3 | 342 | 0.0 | 1.6 | 0.00 | 0.00 | 0.00 | 63 | 1020.4 |
| 20260503052020 | 3 | 342 | 0.0 | 0.0 | 0.00 | 0.00 | 0.00 | 63 | 1020.4 |
| 20260503051522 | 4 | 342 | 0.0 | 0.0 | 0.00 | 0.00 | 0.00 | 63 | 1020.4 |
| 20260503051018 | 4 | 342 | 0.0 | 0.0 | 0.00 | 0.00 | 0.00 | 63 | 1020.4 |
| 20260503050520 | 4 | 342 | 0.0 | 0.0 | 0.00 | 0.00 | 0.00 | 63 | 1020.4 |
| 20260503050018 | 4 | 342 | 0.0 | 0.0 | 0.00 | 0.00 | 0.00 | 63 | 1020.4 |
| 20260503045517 | 4 | 342 | 0.0 | 0.0 | 0.00 | 0.00 | 0.00 | 63 | 1020.4 |
| 20260503045017 | 4 | 342 | 0.0 | 0.0 | 0.00 | 0.00 | 0.00 | 62 | 1020.4 |
| 20260503044533 | 4 | 342 | 0.0 | 0.0 | 0.00 | 0.00 | 0.00 | 62 | 1020.4 |
| 20260503044014 | 5 | 342 | 0.0 | 0.0 | 0.00 | 0.00 | 0.00 | 62 | 1020.3 |
| 20260503043513 | 5 | 342 | 0.0 | 0.0 | 0.00 | 0.00 | 0.00 | 62 | 1020.3 |
| 20260503043027 | 5 | 342 | 0.0 | 0.0 | 0.00 | 0.00 | 0.00 | 62 | 1020.2 |
| 20260503042513 | 5 | 342 | 0.0 | 0.0 | 0.00 | 0.00 | 0.00 | 62 | 1020.2 |